Miscellaneous Local Product
Issued by NWS North Platte, NE

Home | Current Version | Previous Version | Graphics & Text | Print | Product List | Glossary On
Versions: 1 2 3 4 5 6 7 8 9 10 11 12 13 14 15 16 17 18 19 20 21 22 23 24 25 26 27 28 29 30 31 32 33 34 35 36 37 38 39 40 41 42 43 44 45 46 47 48 49 50
000
AXUS43 KLBF 220210
MISLBF


WESTERN AND NORTH CENTRAL NEBRASKA HOURLY WEATHER ROUNDUP
NATIONAL WEATHER SERVICE NORTH PLATTE NE
800 PM CST FRI NOV 21 2014

***STATIONS NOT REPORTING VARIABLES SUCH AS SKY/WEATHER OR
PRESSURE ARE PROVIDED BY THE NEBRASKA DEPARTMENT OF
ROADS...RAWS...AND APRS NETWORKS...AND ARE NOT UNDER
NATIONAL WEATHER SERVICE QUALITY CONTROL***

...OBSERVATIONS IN AND NEAR THE EASTERN PANHANDLE OF NEBRASKA...

CITY           SKY/WX    TMP DP  RH WIND       PRES   REMARKS
PINE RIDGE     CLEAR     31  25  78 S3        29.86S
CHADRON        CLEAR     32  26  78 CALM      29.88R
ALLIANCE       CLEAR     25  18  74 NW7       29.88S WCI  17
SIDNEY         CLEAR     27  16  63 SW9       29.92S WCI  18
WHITECLAY        N/A     34  24  65 CALM        N/A
LISCO            N/A     32  16  51 CALM        N/A
BIG SPRINGS      N/A     38  24  57 W5          N/A  WCI  34
LEWELLEN         N/A     16   0  48 CALM        N/A
$$

...OBSERVATIONS IN NORTH CENTRAL NEBRASKA...

CITY           SKY/WX    TMP DP  RH WIND       PRES   REMARKS
VALENTINE      PTCLDY    35  28  75 W6        29.85F WCI  30
THEDFORD       PTCLDY    42  29  60 SW9       29.88R
AINSWORTH      CLEAR     39  28  64 S10       29.85S WCI  32
O`NEILL        CLOUDY    41  34  75 S8        29.89S
ORD            MOCLDY    40  29  64 S7        29.91F
BROKEN BOW     PTCLDY    40  29  64 S10       29.91S WCI  33
BROWNLEE         N/A     40  22  48 W6          N/A
BREWSTER         N/A     40  31  69 S10         N/A  WCI  33
COMSTOCK         N/A     39  31  70 S12         N/A  WCI  32
$$

...OBSERVATIONS IN SOUTHWEST NEBRASKA AND FAR NORTHEAST COLORADO...

CITY           SKY/WX    TMP DP  RH WIND       PRES   REMARKS
WRAY           FAIR      42  25  49 W3        29.91S
HOLYOKE        FAIR      34  19  55 SW6       29.91S WCI  29
IMPERIAL       CLEAR     35  23  61 S7        29.91S WCI  29
OGALLALA       CLEAR     42  29  61 W3        29.91R
NORTH PLATTE   CLEAR     31  24  75 E5        29.91R WCI  26
MCCOOK         CLEAR     38  30  73 S6        29.93S WCI  33
LEXINGTON      PTCLDY    32  26  80 S8        29.94S WCI  25
PAXTON           N/A     35  27  74 S8          N/A  WCI  28
GOTHENBURG       N/A     37  26  64 CALM        N/A
CALLAWAY         N/A     35  29  78 S12         N/A  WCI  27
$$

...SOME WEATHER OBSERVATIONS FROM AROUND THE REGION...

CITY           SKY/WX    TMP DP  RH WIND       PRES   REMARKS
DENVER         PTCLDY    41  22  46 S12       29.96R
LARAMIE        CLEAR     30  18  60 SW13      29.97S WCI  20
CHEYENNE       CLEAR     35  17  47 W9        29.95S WCI  28
SCOTTSBLUFF    CLEAR     34  21  59 N8        29.89S WCI  27
RAPID CITY     PTCLDY    31  25  78 CALM      29.84S
PIERRE         PTCLDY    35  28  75 SW7       29.81S WCI  29
WINNER         FAIR      44  29  55 SW9       29.83F
SIOUX FALLS    MOCLDY    32  27  81 S13       29.89S WCI  22
OMAHA          CLOUDY    37  33  85 S20       30.05F WCI  27
GRAND ISLAND   CLOUDY    41  29  62 S8        29.98S
KANSAS CITY    CLOUDY    41  37  86 SE7       30.07S
WICHITA        FOG       45  44  97 SW5       30.03S VSB 1/4
HAYS           CLOUDY    41  32  70 S8        30.00R
LIBERAL        MOCLDY    45  32  61 E8        29.99S
GOODLAND       CLEAR     43  28  55 SW8       29.94R
$$



USA.gov is the U.S. government's official web portal to all federal, state and local government web resources and services.